Location: Recife
(8.0585°S, 34.8848°W)
Time: 07:36:21
(UTC-03:00)

Courier 1B - Pass Details

Date: 15 April 2026
Orbit: 962 x 1209 km, 28.3° (Epoch: 13 May)

Event Time Altitude Azimuth Distance (km) Brightness Sun altitude
Rises 09:10:55 0° 245° (WSW) 4,112 10.4 53.3°
Reaches altitude 10° 09:15:05 10° 226° (SW) 3,145 9.9 54.2°
Maximum altitude 09:19:51 17° 188° (S) 2,638 9.7 55.2°
Drops below altitude 10° 09:24:32 10° 150° (SSE) 3,093 10.2 56.2°
Sets 09:28:35 0° 131° (SE) 4,015 10.8 57.1°
